This demonstration page uses our WeatherBlox Daily Observations layout. Learn more.

Hourly Observations for April 13, 2015

Temp ( °F °C ) Dew Point ( °F °C ) Humidity (%) Winds ( mph kmh ) Pressure ( in mb ) Visibility ( mi km ) Precip ( " mm )
12:15 am 00:15 Clear 44 6.7 31 -0.6 60 60 NNE 10 17 30.06 1018 10 16.0934 0 0
12:35 am 00:35 Clear 41 5.2 30 -1.2 64 64 N 8 13 30.09 1019 10 16.0934 0 0
12:55 am 00:55 Clear 40 4.3 29 -1.8 65 65 N 6 9 30.09 1019 10 16.0934 0 0
1:15 am 01:15 Clear 39 4 29 -1.6 67 67 N 5 7 30.12 1020 10 16.0934 0 0
1:35 am 01:35 Clear 42 5.4 30 -1.3 62 62 N 6 9 30.12 1020 10 16.0934 0 0
1:55 am 01:55 Clear 37 2.9 28 -2.4 68 68 N 6 9 30.15 1021 10 16.0934 0 0
2:15 am 02:15 Clear 36 2.2 28 -2.5 71 71 N 5 7 30.18 1022 10 16.0934 0 0
2:35 am 02:35 Clear 37 2.6 28 -2.1 71 71 NNE 3 6 30.18 1022 10 16.0934 0 0
2:55 am 02:55 Clear 36 2.3 28 -2.5 71 71 Calm 30.18 1022 10 16.0934 0 0
3:15 am 03:15 Clear 34 1.2 28 -2.5 77 77 Calm 30.21 1023 10 16.0934 0 0
3:35 am 03:35 Clear 34 0.9 27 -2.9 76 76 Calm 30.21 1023 10 16.0934 0 0
3:55 am 03:55 Clear 32 -0.1 26 -3.2 80 80 WNW 6 9 30.24 1024 10 16.0934 0 0
4:15 am 04:15 Clear 34 1.1 27 -2.6 77 77 WNW 8 13 30.21 1023 10 16.0934 0 0
4:35 am 04:35 Clear 31 -0.5 26 -3.4 81 81 WNW 7 11 30.24 1024 10 16.0934 0 0
4:55 am 04:55 Clear 32 0.1 27 -3 80 80 NW 7 11 30.24 1024 10 16.0934 0 0
5:15 am 05:15 Clear 34 0.9 28 -2.4 79 79 WNW 7 11 30.21 1023 10 16.0934 0 0
5:35 am 05:35 Clear 32 -0.1 26 -3.4 79 79 NW 6 9 30.24 1024 10 16.0934 0 0
5:55 am 05:55 Clear 32 -0.1 27 -3 81 81 NW 7 11 30.24 1024 10 16.0934 0 0
6:15 am 06:15 Clear 32 0 27 -2.9 81 81 NW 7 11 30.24 1024 10 16.0934 0 0
6:35 am 06:35 Clear 33 0.7 28 -2.3 81 81 WNW 7 11 30.21 1023 10 16.0934 0 0
6:55 am 06:55 Clear 33 0.6 28 -2 83 83 NW 7 11 30.27 1025 10 16.0934 0 0
7:15 am 07:15 Sunny 33 0.4 28 -2.1 84 84 WNW 7 11 30.27 1025 10 16.0934 0 0
7:35 am 07:35 Sunny 33 0.6 28 -2 83 83 WNW 9 15 30.3 1026 10 16.0934 0 0
7:55 am 07:55 Sunny 35 1.4 30 -1.3 82 82 NW 10 17 30.3 1026 10 16.0934 0 0
8:15 am 08:15 Sunny 37 2.8 31 -0.6 79 79 NW 6 9 30.27 1025 10 16.0934 0 0
8:35 am 08:35 Sunny 41 5 32 0.1 71 71 WNW 6 9 30.27 1025 10 16.0934 0 0
8:55 am 08:55 Sunny 44 6.8 33 0.6 65 65 WNW 7 11 30.27 1025 10 16.0934 0 0
9:15 am 09:15 Sunny 48 8.8 32 0.1 55 55 NW 8 13 30.24 1024 10 16.0934 0 0
9:35 am 09:35 Sunny 50 10.1 29 -1.4 45 45 NNW 7 11 30.27 1025 10 16.0934 0 0
9:55 am 09:55 Sunny 53 11.7 28 -2.2 38 38 N 7 11 30.24 1024 10 16.0934 0 0
10:15 am 10:15 Sunny 55 12.6 27 -2.9 34 34 N 6 9 30.24 1024 10 16.0934 0 0
10:35 am 10:35 Sunny 56 13.1 26 -3.6 31 31 N 3 6 30.24 1024 10 16.0934 0 0
10:55 am 10:55 Sunny 56 13.3 24 -4.2 30 30 NE 3 6 30.24 1024 10 16.0934 0 0
11:15 am 11:15 Sunny 57 14 22 -5.5 26 26 E 3 6 30.24 1024 10 16.0934 0 0
11:35 am 11:35 Sunny 58 14.4 21 -6.1 24 24 Calm 30.24 1024 10 16.0934 0 0
11:55 am 11:55 Sunny 59 14.9 18 -7.9 20 20 Calm 30.21 1023 10 16.0934 0 0
12:15 pm 12:15 Sunny 61 15.9 19 -7.1 20 20 NNE 3 6 30.21 1023 10 16.0934 0 0
12:35 pm 12:35 Sunny 61 16 19 -7.2 20 20 Calm 30.21 1023 10 16.0934 0 0
12:55 pm 12:55 Sunny 61 16.1 18 -7.7 19 19 Calm 30.21 1023 10 16.0934 0 0
1:15 pm 13:15 Sunny 62 16.8 18 -7.6 18 18 N 3 6 30.21 1023 10 16.0934 0 0
1:35 pm 13:35 Sunny 63 17.2 20 -6.9 19 19 N 3 6 30.18 1022 10 16.0934 0 0
1:55 pm 13:55 Sunny 63 17 18 -7.9 18 18 NE 3 6 30.18 1022 10 16.0934 0 0
2:15 pm 14:15 Sunny 63 17.1 17 -8.1 17 17 NE 3 6 30.18 1022 10 16.0934 0 0
2:35 pm 14:35 Sunny 63 17.2 18 -7.9 17 17 ENE 3 6 30.18 1022 10 16.0934 0 0
2:55 pm 14:55 Sunny 64 18 18 -7.8 17 17 Calm 30.18 1022 10 16.0934 0 0
3:15 pm 15:15 Sunny 64 17.9 18 -7.6 17 17 Calm 30.12 1020 10 16.0934 0 0
3:35 pm 15:35 Sunny 64 17.8 17 -8.3 16 16 Calm 30.12 1020 10 16.0934 0 0
3:55 pm 15:55 Sunny 65 18.2 17 -8.2 16 16 NNW 3 6 30.12 1020 10 16.0934 0 0
4:15 pm 16:15 Sunny 65 18.4 18 -7.7 16 16 SSE 5 7 30.12 1020 10 16.0934 0 0
4:35 pm 16:35 Sunny 65 18.4 17 -8.1 16 16 WNW 3 6 30.12 1020 10 16.0934 0 0
4:55 pm 16:55 Sunny 66 18.9 18 -7.7 16 16 SSE 5 7 30.12 1020 10 16.0934 0 0
5:15 pm 17:15 Sunny 66 18.7 17 -8.1 15 15 SW 3 6 30.12 1020 10 16.0934 0 0
5:35 pm 17:35 Sunny 65 18.5 18 -8 16 16 E 3 6 30.12 1020 10 16.0934 0 0
5:55 pm 17:55 Sunny 65 18.5 18 -7.8 16 16 Calm 30.12 1020 10 16.0934 0 0
6:15 pm 18:15 Sunny 66 18.9 20 -6.8 17 17 Calm 30.12 1020 10 16.0934 0 0
6:35 pm 18:35 Sunny 65 18.4 17 -8.2 16 16 S 5 7 30.12 1020 10 16.0934 0 0
6:55 pm 18:55 Sunny 65 18.2 17 -8.4 16 16 SE 3 6 30.12 1020 10 16.0934 0 0
7:15 pm 19:15 Sunny 64 18 17 -8.4 16 16 Calm 30.12 1020 10 16.0934 0 0
7:35 pm 19:35 Sunny 64 17.5 20 -6.6 19 19 SSW 5 7 30.12 1020 10 16.0934 0 0
7:55 pm 19:55 Sunny 61 15.9 23 -5.2 23 23 SSW 6 9 30.15 1021 10 16.0934 0 0
8:15 pm 20:15 Clear 59 15.1 23 -5.1 25 25 SSW 7 11 30.15 1021 10 16.0934 0 0
8:35 pm 20:35 Clear 56 13.5 23 -5.1 27 27 SSW 5 7 30.18 1022 10 16.0934 0 0
8:55 pm 20:55 Clear 55 12.6 23 -5.1 29 29 SSW 6 9 30.18 1022 10 16.0934 0 0
9:15 pm 21:15 Clear 53 11.7 22 -5.3 30 30 S 5 7 30.18 1022 10 16.0934 0 0
9:35 pm 21:35 Clear 53 11.4 22 -5.5 30 30 SSW 6 9 30.18 1022 10 16.0934 0 0
9:55 pm 21:55 Clear 49 9.4 22 -5.5 35 35 S 7 11 30.24 1024 10 16.0934 0 0
10:15 pm 22:15 Clear 49 9.2 22 -5.4 36 36 S 8 13 30.24 1024 10 16.0934 0 0
10:35 pm 22:35 Clear 51 10.4 24 -4.5 35 35 S 8 13 30.24 1024 10 16.0934 0 0
10:55 pm 22:55 Clear 53 11.5 25 -4 34 34 S 8 13 30.21 1023 10 16.0934 0 0
11:15 pm 23:15 Clear 52 11.1 25 -4.1 34 34 S 9 15 30.24 1024 10 16.0934 0 0
11:35 pm 23:35 Clear 51 10.6 25 -3.9 36 36 S 9 15 30.24 1024 10 16.0934 0 0
11:55 pm 23:55 Clear 50 10.1 26 -3.5 39 39 S 12 19 30.24 1024 10 16.0934 0 0

Powered by AerisWeather